SCP
0 0 0 0 0 0 -0 -0 -0 -0 -0 -0 -0 -0 -0 0 0 0 0 1 0 0 -0 0 0 0 0 0 0 0 0 0 0 0 0 0 0 0 0 0 0 0 0
0 0 0 0 0 0 0 0 0 0 -0 -0 -0 0 0 0 0 0 0 1 0 0 0 0 0 0 0 0 0 0 0 0 0 0 0 0 0 0 0 0 0 0 0
0 0 0 0 0 0 0 0 0 0 0 -0 -0 -0 0 0 0 0 0 0 0 0 0 0 0 0 0 0 0 0 0 0 0 0 0 0 0 0 0 0 0 0 0
0 0 0 0 0 0 0 0 0 0 0 0 0 0 0 0 0 0 0 0 0 0 0 0 0 0 0 0 0 0 0 0 0 0 0 0 0 0 0 0 0 0 0
0 0 0 0 0 0 0 0 0 0 0 0 0 0 0 0 0 0 0 0 0 0 0 0 0 0 0 0 0 0 0 0 0 0 0 0 0 0 0 0 0 0 0
0 0 0 0 0 0 0 0 0 0 0 0 0 0 0 0 0 0 0 0 0 0 0 0 0 0 0 0 0 0 0 0 0 0 0 0 0 0 0 0 0 0 0
1 1 0 0 0 0 0 0 0 1 0 0 0 0 0 0 0 0 0 0 0 0 0 0 0 0 0 0 0 0 0 0 0 0 0 0 0 0 0 0 0 0 0
1 1 0 0 0 0 0 1 1 0 0 0 0 0 0 0 0 0 0 0 0 0 0 0 0 0 0 0 0 0 0 0 0 0 0 0 0 0 0 0 0 -0 0
0 0 0 0 0 0 0 0 0 0 0 0 0 0 0 0 0 0 0 0 0 0 0 0 0 0 0 0 0 0 0 0 0 0 0 0 0 -0 -0 0 0 0 0
0 0 0 0 0 0 0 -0 0 0 0 0 0 -0 -0 0 0 -0 0 0 0 0 0 0 0 0 0 0 0 0 0 0 0 0 0 0 0 -0 -0 0 0 0 0
-0 0 0 0 0 0 0 0 0 0 0 0 0 -0 0 0 0 0 0 0 0 0 0 0 0 0 0 0 0 0 0 0 0 0 0 0 0 0 0 -0 0 0 0
0 0 0 0 0 0 0 0 0 0 0 0 0 0 0 0 0 0 0 0 0 0 0 0 0 0 0 0 0 0 0 0 0 0 0 0 0 0 0 -0 -0 -0 0
0 0 0 0 0 0 0 0 0 0 0 0 0 0 -0 -0 0 0 0 0 0 0 0 0 0 0 0 0 0 0 0 0 0 0 0 0 0 0 0 0 0 0 0
0 0 0 0 0 0 0 0 0 0 0 0 -0 -0 -0 -0 0 0 0 0 0 0 0 0 0 0 0 0 0 0 0 0 0 0 0 0 0 0 0 0 0 0 0
0 0 0 0 0 0 0 0 0 0 0 0 0 0 -0 0 0 0 0 0 0 0 0 0 0 0 0 0 0 0 0 0 0 0 0 0 0 0 0 0 0 0 0
0 0 0 0 0 0 0 0 0 0 0 0 0 0 0 0 0 0 0 0 0 0 0 0 0 0 0 0 0 0 0 0 0 -0 -0 -0 0 0 0 0 0 0 0
0 0 0 0 0 0 0 0 0 0 0 0 0 0 0 0 0 0 0 0 0 0 0 0 0 0 0 0 0 0 0 0 0 0 0 0 0 0 0 0 0 0 0
-0 0 0 0 0 0 0 0 0 0 0 0 0 0 0 0 0 0 0 0 0 0 0 0 0 0 0 0 0 0 0 0 -0 0 0 0 0 0 0 0 0 0 0
-0 -0 0 0 0 0 0 0 0 0 0 0 0 0 0 0 0 0 0 0 0 0 0 0 0 0 0 0 0 0 0 0 0 0 -0 -0 0 0 0 0 0 0 0
-0 -0 -0 0 0 0 0 0 0 0 0 0 0 0 0 0 0 0 0 0 0 0 0 0 0 0 0 0 0 0 0 0 0 0 0 0 0 0 0 0 0 0 0
-0 -0 -0 -0 0 0 0 0 0 0 0 0 0 0 0 0 0 0 0 0 0 0 0 0 0 0 0 0 0 0 0 0 0 0 0 0 0 0 0 0 0 0 0
0 -0 -0 -0 -0 0 0 0 0 0 0 0 0 0 0 0 0 0 0 0 0 0 0 0 0 0 0 0 0 0 0 0 0 0 0 0 0 0 0 0 0 0 0
0 -0 -0 -0 0 0 0 0 0 0 0 0 0 0 0 0 0 0 0 0 0 0 0 0 -0 0 0 0 0 0 0 0 0 0 0 0 0 0 0 0 0 0 0
-0 -0 -0 0 0 0 0 0 0 0 0 0 0 0 0 0 0 0 0 0 0 0 0 0 0 0 0 0 0 0 0 0 0 0 0 0 0 0 0 0 0 0 0
-0 -0 0 0 0 0 0 0 0 0 0 0 0 0 0 0 0 0 0 0 0 0 0 0 0 0 0 0 0 0 0 0 0 0 0 0 0 0 0 0 0 0 0
0 0 0 0 0 0 0 0 0 0 0 0 0 0 0 0 0 0 0 0 0 0 0 0 0 0 0 0 0 0 0 0 0 0 0 0 0 0 0 0 0 0 0
Wind_Speed_500mb
33 24 16 19 17 17 13 18 18 11 6 13 21 19 18 21 17 19 12 19 12 12 18 23 21 18 16 16 18 16 16 17 16 16 15 12 10 10 11 12 10 8 9
35 33 27 25 26 26 26 26 25 23 15 12 15 21 23 26 28 25 15 15 17 18 18 18 20 17 16 16 19 21 22 21 18 15 10 8 6 7 10 12 12 10 10
31 36 40 35 33 31 30 29 35 37 36 25 26 22 28 42 45 32 32 28 26 24 21 19 18 15 15 14 17 20 22 21 17 12 9 6 6 6 8 11 12 10 9
43 37 42 44 39 41 38 37 35 33 29 37 37 41 40 39 46 38 38 36 31 29 21 20 17 18 18 13 14 15 17 16 14 12 9 7 5 6 8 10 12 9 8
51 56 51 49 42 47 49 44 41 34 38 39 49 50 46 43 47 47 43 39 35 30 26 26 25 22 18 16 11 12 13 13 13 12 11 9 4 4 6 9 11 11 10
47 59 64 60 53 49 56 53 50 45 47 51 52 50 50 45 46 43 51 45 44 36 33 31 30 23 21 16 11 9 11 13 13 13 12 8 5 3 4 9 11 11 10
62 65 57 71 69 58 56 56 51 48 52 54 55 54 53 52 51 40 42 51 49 41 46 40 36 28 21 18 16 9 11 14 14 14 12 8 6 4 5 8 12 12 9
69 66 62 62 60 58 52 54 52 47 53 53 55 61 68 65 61 47 51 63 67 56 48 48 46 38 30 23 20 18 18 17 17 18 15 13 10 8 5 8 11 13 10
64 61 48 34 45 50 46 62 57 56 52 45 34 34 26 23 32 33 37 52 56 52 48 52 54 47 40 32 24 19 25 24 23 22 21 21 17 14 12 12 12 13 13
55 50 58 41 70 87 76 77 68 55 49 31 37 44 32 44 54 49 34 37 36 34 53 63 43 38 52 46 36 35 33 33 33 30 28 30 25 23 21 19 18 17 15
36 36 18 27 55 61 64 59 40 42 17 17 29 30 43 24 36 55 57 50 42 17 27 36 40 39 42 44 48 47 48 44 43 42 37 33 30 29 28 29 27 24 18
25 19 7 31 33 41 33 41 41 47 64 45 66 43 47 25 54 47 38 32 31 35 34 31 28 34 43 39 34 31 56 60 52 45 41 43 38 36 34 36 36 31 26
12 14 8 11 13 10 22 39 56 70 58 72 46 47 46 44 48 47 38 41 30 27 34 37 27 25 29 54 37 53 62 62 57 52 43 42 43 44 38 39 43 39 34
24 18 11 16 12 9 7 14 27 32 29 47 49 52 56 50 43 43 42 45 50 46 49 54 57 51 57 50 55 62 49 63 72 59 57 53 48 48 44 45 49 44 42
18 13 10 8 10 10 12 8 8 6 12 25 33 35 47 43 40 34 42 45 51 52 43 47 62 59 46 42 51 57 65 53 45 48 48 53 54 52 45 47 52 51 45
19 13 6 5 6 11 10 9 8 10 7 11 18 26 34 36 34 28 31 37 36 38 36 43 44 38 36 39 39 40 49 55 58 45 53 61 63 58 54 52 53 55 48
29 24 21 17 11 8 6 17 18 16 11 11 8 5 4 9 14 16 13 14 24 28 30 36 41 40 38 34 33 31 36 33 46 48 39 33 43 44 44 46 48 53 50
36 33 31 26 21 21 23 15 16 16 19 16 15 13 11 9 11 12 13 15 18 22 20 28 29 26 29 31 35 34 31 41 45 49 44 37 39 41 39 40 45 45 47
41 38 40 40 34 23 17 22 23 27 25 28 28 23 20 14 12 11 12 18 20 18 21 27 35 30 27 21 27 30 33 30 45 41 44 45 38 35 36 37 41 44 43
40 40 43 49 42 28 22 18 23 30 34 36 39 38 35 30 25 19 19 18 14 15 15 18 20 19 16 13 16 21 24 39 49 45 46 44 36 35 32 34 40 40 37
50 50 46 49 51 36 25 23 23 28 31 34 37 35 39 36 30 25 16 17 17 13 10 11 14 14 13 11 9 15 19 17 29 41 42 35 32 32 32 35 37 34 27
45 44 49 60 54 34 26 24 23 25 29 36 37 31 24 25 30 29 33 27 19 16 12 14 14 21 18 10 8 11 13 16 15 20 26 29 30 34 32 31 33 36 31
41 49 59 55 47 33 27 24 26 22 26 28 30 33 25 22 21 19 27 37 34 31 28 25 21 23 26 23 17 10 11 7 4 7 15 24 27 31 29 29 26 26 22
50 58 51 46 43 38 36 29 24 23 25 25 23 30 24 26 25 22 19 20 19 17 22 23 26 33 35 35 31 24 22 21 22 19 15 16 14 16 13 12 14 17 16
55 54 50 45 39 32 30 26 24 27 30 27 20 22 26 29 20 17 16 16 19 23 26 31 35 34 35 39 43 37 31 24 25 23 13 17 22 20 19 18 15 12 11
43 46 44 34 28 26 25 28 30 25 29 27 24 25 29 30 31 27 26 29 31 37 43 46 40 33 30 30 31 43 42 36 27 22 11 11 16 20 19 21 22 22 19
Wind_Direction_500mb
243 236 213 203 203 204 205 207 209 206 207 224 214 234 256 263 257 291 231 238 257 329 342 338 318 300 283 253 228 225 225 229 238 256 264 282 300 313 330 337 337 338 331
251 253 239 229 232 237 235 249 242 236 224 236 234 247 280 267 280 294 238 249 281 303 315 324 325 307 293 271 243 238 241 240 246 253 253 262 291 320 342 345 333 334 339
256 254 256 245 241 250 246 258 260 256 248 243 259 271 265 268 272 283 263 270 283 291 287 301 319 329 315 290 257 243 238 238 242 239 235 247 276 317 340 342 337 337 332
259 255 257 253 252 251 251 253 263 256 257 247 258 271 271 249 255 267 260 260 270 293 266 270 292 314 324 308 273 247 236 230 228 225 226 242 270 307 332 342 338 335 338
261 256 258 258 265 250 251 254 262 258 252 251 256 263 274 251 241 256 252 255 264 274 265 265 284 302 305 307 288 265 241 226 221 220 223 228 239 289 324 340 346 348 348
264 261 259 260 262 263 247 250 255 263 265 266 269 266 268 264 255 250 255 256 253 261 259 267 278 284 292 294 282 266 252 236 225 225 225 225 230 249 312 336 347 355 349
267 265 271 257 254 257 255 252 254 266 268 269 273 274 269 264 259 262 235 243 249 255 252 259 274 274 283 272 259 271 258 243 236 233 229 234 240 255 304 326 342 346 351
258 258 257 249 249 260 265 253 254 255 260 269 273 279 283 276 267 259 245 236 254 255 249 246 261 266 268 277 273 260 260 259 248 242 239 239 243 255 283 315 330 340 342
255 255 253 250 253 266 272 270 252 250 262 259 279 307 308 313 310 290 279 256 252 249 257 248 250 247 255 267 270 273 266 264 252 247 248 250 253 262 275 289 309 327 335
302 271 269 301 273 278 273 297 280 263 255 274 296 318 304 288 308 296 283 253 256 272 261 258 259 251 246 246 255 261 262 269 266 262 258 255 254 260 269 276 286 300 324
328 329 292 230 238 245 259 270 238 246 298 300 351 324 315 269 293 275 280 283 274 277 246 243 243 250 246 247 252 256 254 252 250 256 264 261 258 264 267 270 273 281 297
347 329 235 209 243 262 270 238 228 278 265 254 306 287 287 243 246 267 281 280 281 282 255 267 245 249 249 246 250 281 276 261 257 254 251 261 262 259 264 265 266 268 277
4 355 333 238 283 290 274 260 258 254 255 259 265 261 236 239 268 265 264 268 270 272 275 276 284 252 258 247 284 274 275 252 263 259 258 246 245 250 255 263 263 264 265
22 11 334 305 312 304 358 316 264 255 242 232 261 257 267 274 263 261 267 263 274 271 274 274 276 271 283 276 275 258 255 260 266 250 265 251 252 250 248 253 259 260 259
25 16 18 1 350 322 7 5 21 357 292 276 269 255 274 281 273 266 270 265 266 270 272 270 281 275 284 288 279 253 246 259 259 246 256 245 253 249 246 249 254 255 253
15 6 5 1 320 325 357 12 13 20 339 301 279 271 278 276 270 271 269 269 261 260 268 280 285 286 278 282 285 281 280 275 250 237 244 258 247 248 252 247 248 252 249
11 5 355 343 337 332 311 279 295 300 319 288 299 263 311 298 280 274 271 277 270 264 266 273 273 276 278 277 279 284 266 253 232 239 242 244 248 255 248 244 249 249 245
15 14 8 353 329 319 323 321 327 317 301 310 305 298 312 330 343 326 311 307 307 302 292 284 281 277 276 281 274 263 241 243 211 220 223 226 241 252 247 247 251 251 238
13 15 14 8 358 343 331 306 321 326 297 290 296 302 317 318 294 300 309 316 315 312 297 285 288 284 282 277 270 266 241 243 235 236 223 229 238 234 242 239 250 249 235
3 360 2 1 356 345 333 332 316 307 313 312 297 296 296 295 304 316 308 295 298 305 303 296 288 301 290 266 270 265 252 240 245 246 241 242 243 237 243 243 244 233 232
351 350 348 346 341 334 334 324 326 330 330 329 327 300 289 285 286 284 326 313 274 278 307 307 305 330 7 15 284 270 263 251 240 238 239 235 231 245 251 251 253 246 228
339 337 335 333 332 329 325 312 316 323 327 331 334 329 321 289 279 283 277 297 312 300 288 301 324 318 329 350 12 344 291 263 253 241 243 244 246 249 250 249 250 245 236
326 327 326 329 335 330 326 319 306 317 316 326 333 333 324 315 311 308 291 283 291 294 296 302 298 297 304 320 313 308 320 321 261 242 258 249 241 247 253 251 252 253 252
325 327 331 327 327 328 327 318 309 301 303 309 324 336 332 316 314 312 297 296 309 301 299 305 299 288 284 286 299 288 275 285 279 284 267 258 223 219 232 234 226 232 236
317 317 320 328 331 331 332 318 304 302 302 301 298 308 316 331 322 323 324 313 300 297 298 303 303 294 286 276 266 271 275 273 279 278 263 250 250 252 251 247 237 221 220
316 322 324 331 339 337 321 321 321 313 307 308 279 287 296 311 316 306 307 314 311 311 313 309 303 298 291 280 273 260 260 267 267 275 253 256 251 236 242 230 232 241 230
Wind_Speed_850mb
33 24 16 19 17 17 13 18 18 11 6 13 21 19 18 21 17 19 12 19 12 12 18 23 21 18 16 16 18 16 16 17 16 16 15 12 10 10 11 12 10 8 9
35 33 27 25 26 26 26 26 25 23 15 12 15 21 23 26 28 25 15 15 17 18 18 18 20 17 16 16 19 21 22 21 18 15 10 8 6 7 10 12 12 10 10
31 36 40 35 33 31 30 29 35 37 36 25 26 22 28 42 45 32 32 28 26 24 21 19 18 15 15 14 17 20 22 21 17 12 9 6 6 6 8 11 12 10 9
43 37 42 44 39 41 38 37 35 33 29 37 37 41 40 39 46 38 38 36 31 29 21 20 17 18 18 13 14 15 17 16 14 12 9 7 5 6 8 10 12 9 8
51 56 51 49 42 47 49 44 41 34 38 39 49 50 46 43 47 47 43 39 35 30 26 26 25 22 18 16 11 12 13 13 13 12 11 9 4 4 6 9 11 11 10
47 59 64 60 53 49 56 53 50 45 47 51 52 50 50 45 46 43 51 45 44 36 33 31 30 23 21 16 11 9 11 13 13 13 12 8 5 3 4 9 11 11 10
62 65 57 71 69 58 56 56 51 48 52 54 55 54 53 52 51 40 42 51 49 41 46 40 36 28 21 18 16 9 11 14 14 14 12 8 6 4 5 8 12 12 9
69 66 62 62 60 58 52 54 52 47 53 53 55 61 68 65 61 47 51 63 67 56 48 48 46 38 30 23 20 18 18 17 17 18 15 13 10 8 5 8 11 13 10
64 61 48 34 45 50 46 62 57 56 52 45 34 34 26 23 32 33 37 52 56 52 48 52 54 47 40 32 24 19 25 24 23 22 21 21 17 14 12 12 12 13 13
55 50 58 41 70 87 76 77 68 55 49 31 37 44 32 44 54 49 34 37 36 34 53 63 43 38 52 46 36 35 33 33 33 30 28 30 25 23 21 19 18 17 15
36 36 18 27 55 61 64 59 40 42 17 17 29 30 43 24 36 55 57 50 42 17 27 36 40 39 42 44 48 47 48 44 43 42 37 33 30 29 28 29 27 24 18
25 19 7 31 33 41 33 41 41 47 64 45 66 43 47 25 54 47 38 32 31 35 34 31 28 34 43 39 34 31 56 60 52 45 41 43 38 36 34 36 36 31 26
12 14 8 11 13 10 22 39 56 70 58 72 46 47 46 44 48 47 38 41 30 27 34 37 27 25 29 54 37 53 62 62 57 52 43 42 43 44 38 39 43 39 34
24 18 11 16 12 9 7 14 27 32 29 47 49 52 56 50 43 43 42 45 50 46 49 54 57 51 57 50 55 62 49 63 72 59 57 53 48 48 44 45 49 44 42
18 13 10 8 10 10 12 8 8 6 12 25 33 35 47 43 40 34 42 45 51 52 43 47 62 59 46 42 51 57 65 53 45 48 48 53 54 52 45 47 52 51 45
19 13 6 5 6 11 10 9 8 10 7 11 18 26 34 36 34 28 31 37 36 38 36 43 44 38 36 39 39 40 49 55 58 45 53 61 63 58 54 52 53 55 48
29 24 21 17 11 8 6 17 18 16 11 11 8 5 4 9 14 16 13 14 24 28 30 36 41 40 38 34 33 31 36 33 46 48 39 33 43 44 44 46 48 53 50
36 33 31 26 21 21 23 15 16 16 19 16 15 13 11 9 11 12 13 15 18 22 20 28 29 26 29 31 35 34 31 41 45 49 44 37 39 41 39 40 45 45 47
41 38 40 40 34 23 17 22 23 27 25 28 28 23 20 14 12 11 12 18 20 18 21 27 35 30 27 21 27 30 33 30 45 41 44 45 38 35 36 37 41 44 43
40 40 43 49 42 28 22 18 23 30 34 36 39 38 35 30 25 19 19 18 14 15 15 18 20 19 16 13 16 21 24 39 49 45 46 44 36 35 32 34 40 40 37
50 50 46 49 51 36 25 23 23 28 31 34 37 35 39 36 30 25 16 17 17 13 10 11 14 14 13 11 9 15 19 17 29 41 42 35 32 32 32 35 37 34 27
45 44 49 60 54 34 26 24 23 25 29 36 37 31 24 25 30 29 33 27 19 16 12 14 14 21 18 10 8 11 13 16 15 20 26 29 30 34 32 31 33 36 31
41 49 59 55 47 33 27 24 26 22 26 28 30 33 25 22 21 19 27 37 34 31 28 25 21 23 26 23 17 10 11 7 4 7 15 24 27 31 29 29 26 26 22
50 58 51 46 43 38 36 29 24 23 25 25 23 30 24 26 25 22 19 20 19 17 22 23 26 33 35 35 31 24 22 21 22 19 15 16 14 16 13 12 14 17 16
55 54 50 45 39 32 30 26 24 27 30 27 20 22 26 29 20 17 16 16 19 23 26 31 35 34 35 39 43 37 31 24 25 23 13 17 22 20 19 18 15 12 11
43 46 44 34 28 26 25 28 30 25 29 27 24 25 29 30 31 27 26 29 31 37 43 46 40 33 30 30 31 43 42 36 27 22 11 11 16 20 19 21 22 22 19
Wind_Direction_850mb
243 236 213 203 203 204 205 207 209 206 207 224 214 234 256 263 257 291 231 238 257 329 342 338 318 300 283 253 228 225 225 229 238 256 264 282 300 313 330 337 337 338 331
251 253 239 229 232 237 235 249 242 236 224 236 234 247 280 267 280 294 238 249 281 303 315 324 325 307 293 271 243 238 241 240 246 253 253 262 291 320 342 345 333 334 339
256 254 256 245 241 250 246 258 260 256 248 243 259 271 265 268 272 283 263 270 283 291 287 301 319 329 315 290 257 243 238 238 242 239 235 247 276 317 340 342 337 337 332
259 255 257 253 252 251 251 253 263 256 257 247 258 271 271 249 255 267 260 260 270 293 266 270 292 314 324 308 273 247 236 230 228 225 226 242 270 307 332 342 338 335 338
261 256 258 258 265 250 251 254 262 258 252 251 256 263 274 251 241 256 252 255 264 274 265 265 284 302 305 307 288 265 241 226 221 220 223 228 239 289 324 340 346 348 348
264 261 259 260 262 263 247 250 255 263 265 266 269 266 268 264 255 250 255 256 253 261 259 267 278 284 292 294 282 266 252 236 225 225 225 225 230 249 312 336 347 355 349
267 265 271 257 254 257 255 252 254 266 268 269 273 274 269 264 259 262 235 243 249 255 252 259 274 274 283 272 259 271 258 243 236 233 229 234 240 255 304 326 342 346 351
258 258 257 249 249 260 265 253 254 255 260 269 273 279 283 276 267 259 245 236 254 255 249 246 261 266 268 277 273 260 260 259 248 242 239 239 243 255 283 315 330 340 342
255 255 253 250 253 266 272 270 252 250 262 259 279 307 308 313 310 290 279 256 252 249 257 248 250 247 255 267 270 273 266 264 252 247 248 250 253 262 275 289 309 327 335
302 271 269 301 273 278 273 297 280 263 255 274 296 318 304 288 308 296 283 253 256 272 261 258 259 251 246 246 255 261 262 269 266 262 258 255 254 260 269 276 286 300 324
328 329 292 230 238 245 259 270 238 246 298 300 351 324 315 269 293 275 280 283 274 277 246 243 243 250 246 247 252 256 254 252 250 256 264 261 258 264 267 270 273 281 297
347 329 235 209 243 262 270 238 228 278 265 254 306 287 287 243 246 267 281 280 281 282 255 267 245 249 249 246 250 281 276 261 257 254 251 261 262 259 264 265 266 268 277
4 355 333 238 283 290 274 260 258 254 255 259 265 261 236 239 268 265 264 268 270 272 275 276 284 252 258 247 284 274 275 252 263 259 258 246 245 250 255 263 263 264 265
22 11 334 305 312 304 358 316 264 255 242 232 261 257 267 274 263 261 267 263 274 271 274 274 276 271 283 276 275 258 255 260 266 250 265 251 252 250 248 253 259 260 259
25 16 18 1 350 322 7 5 21 357 292 276 269 255 274 281 273 266 270 265 266 270 272 270 281 275 284 288 279 253 246 259 259 246 256 245 253 249 246 249 254 255 253
15 6 5 1 320 325 357 12 13 20 339 301 279 271 278 276 270 271 269 269 261 260 268 280 285 286 278 282 285 281 280 275 250 237 244 258 247 248 252 247 248 252 249
11 5 355 343 337 332 311 279 295 300 319 288 299 263 311 298 280 274 271 277 270 264 266 273 273 276 278 277 279 284 266 253 232 239 242 244 248 255 248 244 249 249 245
15 14 8 353 329 319 323 321 327 317 301 310 305 298 312 330 343 326 311 307 307 302 292 284 281 277 276 281 274 263 241 243 211 220 223 226 241 252 247 247 251 251 238
13 15 14 8 358 343 331 306 321 326 297 290 296 302 317 318 294 300 309 316 315 312 297 285 288 284 282 277 270 266 241 243 235 236 223 229 238 234 242 239 250 249 235
3 360 2 1 356 345 333 332 316 307 313 312 297 296 296 295 304 316 308 295 298 305 303 296 288 301 290 266 270 265 252 240 245 246 241 242 243 237 243 243 244 233 232
351 350 348 346 341 334 334 324 326 330 330 329 327 300 289 285 286 284 326 313 274 278 307 307 305 330 7 15 284 270 263 251 240 238 239 235 231 245 251 251 253 246 228
339 337 335 333 332 329 325 312 316 323 327 331 334 329 321 289 279 283 277 297 312 300 288 301 324 318 329 350 12 344 291 263 253 241 243 244 246 249 250 249 250 245 236
326 327 326 329 335 330 326 319 306 317 316 326 333 333 324 315 311 308 291 283 291 294 296 302 298 297 304 320 313 308 320 321 261 242 258 249 241 247 253 251 252 253 252
325 327 331 327 327 328 327 318 309 301 303 309 324 336 332 316 314 312 297 296 309 301 299 305 299 288 284 286 299 288 275 285 279 284 267 258 223 219 232 234 226 232 236
317 317 320 328 331 331 332 318 304 302 302 301 298 308 316 331 322 323 324 313 300 297 298 303 303 294 286 276 266 271 275 273 279 278 263 250 250 252 251 247 237 221 220
316 322 324 331 339 337 321 321 321 313 307 308 279 287 296 311 316 306 307 314 311 311 313 309 303 298 291 280 273 260 260 267 267 275 253 256 251 236 242 230 232 241 230